Hyannis, MA

5:15 PM EDT on March 24, 2017 (GMT -0400)
Barnstable Municipal-Boardman-Polando Field

Weather History for KHYA - April, 2013

Change the Weather History Date:

Monday, April 15, 2013

  Actual Average Record
Temperature  
Mean Temperature 44 °F -  
Max Temperature 52 °F 52 °F 76 °F (1960)
Min Temperature 37 °F 35 °F 18 °F (1959)
Degree Days  
Heating Degree Days 20    
Moisture  
Dew Point 36 °F    
Average Humidity 71    
Maximum Humidity 93    
Minimum Humidity 52    
Precipitation  
Precipitation 0.00 in - - ()
Sea Level Pressure  
Sea Level Pressure 30.33 in    
Wind  
Wind Speed 6 mph (ENE)    
Max Wind Speed 9 mph    
Max Gust Speed -    
Visibility 10 miles    
Events      
Averages and records for this station are not official NWS values.
T = Trace of Precipitation, MM = Missing Value Source: NWS Daily Summary

Daily Weather History Graph

Daily Weather History Graph

Search for Another Location

Airport or City:

Trip Planner

Search our weather history database for the weather conditions in past years. The results will help you decide how hot, cold, wet, or windy it might be!

Date:

Astronomy

Apr. 15, 2013 Rise Set
Actual Time 6:00 AM EDT 7:22 PM EDT
Civil Twilight 5:31 AM EDT 7:50 PM EDT
Nautical Twilight 4:57 AM EDT 8:25 PM EDT
Astronomical Twilight 4:20 AM EDT 9:02 PM EDT
Moon 9:21 AM EDT (4/15) No Moon Set
Length of Visible Light 14h 19m
Length of Day
13h 21m
Waxing Crescent, 24% of the Moon is Illuminated
Apr 15
Waxing Crescent
Apr 18
First Quarter
Apr 25
Full
May 2
Last Quarter
May 9
New

Hourly Weather History & Observations

Time (EDT) Temp. Windchill Dew Point Humidity Pressure Visibility Wind Dir Wind Speed Gust Speed Precip Events Conditions
12:56 AM 42.1 °F 38.4 °F 27.0 °F 55% 30.19 in 10.0 mi NW 5.8 mph - N/A   Clear
1:56 AM 41.0 °F 37.1 °F 28.0 °F 60% 30.19 in 10.0 mi NNW 5.8 mph - N/A   Clear
2:56 AM 41.0 °F 39.0 °F 30.9 °F 67% 30.21 in 10.0 mi NNW 3.5 mph - N/A   Clear
3:56 AM 37.9 °F 35.5 °F 30.9 °F 76% 30.23 in 10.0 mi North 3.5 mph - N/A   Clear
4:56 AM 39.9 °F 34.5 °F 34.0 °F 79% 30.24 in 10.0 mi North 8.1 mph - N/A   Clear
5:56 AM 41.0 °F 36.4 °F 36.0 °F 82% 30.27 in 10.0 mi North 6.9 mph - N/A   Clear
6:56 AM 43.0 °F 41.3 °F 37.0 °F 80% 30.31 in 10.0 mi North 3.5 mph - N/A   Clear
7:56 AM 45.0 °F 40.6 °F 37.0 °F 74% 30.34 in 10.0 mi NNE 8.1 mph - N/A   Clear
8:56 AM 46.9 °F - 37.9 °F 71% 30.34 in 10.0 mi North 8.1 mph - N/A   Clear
9:56 AM 48.9 °F - 39.0 °F 69% 30.37 in 10.0 mi Variable 4.6 mph - N/A   Clear
10:56 AM 51.1 °F - 39.9 °F 66% 30.37 in 10.0 mi NNE 5.8 mph - N/A   Clear
11:56 AM 51.1 °F - 39.0 °F 63% 30.37 in 10.0 mi NE 3.5 mph - N/A   Clear
12:56 PM 52.0 °F - 35.1 °F 53% 30.37 in 10.0 mi SSW 9.2 mph - N/A   Scattered Clouds
1:56 PM 51.1 °F - 34.0 °F 52% 30.38 in 10.0 mi SSE 8.1 mph - N/A   Partly Cloudy
2:56 PM 50.0 °F - 34.0 °F 54% 30.37 in 10.0 mi South 8.1 mph - N/A   Clear
3:56 PM 50.0 °F - 36.0 °F 59% 30.36 in 10.0 mi South 9.2 mph - N/A   Clear
4:56 PM 48.9 °F - 36.0 °F 61% 30.35 in 10.0 mi South 8.1 mph - N/A   Clear
5:56 PM 48.9 °F - 37.0 °F 64% 30.35 in 10.0 mi SSE 6.9 mph - N/A   Clear
6:56 PM 46.0 °F 43.9 °F 37.9 °F 73% 30.37 in 10.0 mi SE 4.6 mph - N/A   Clear
7:56 PM 44.1 °F - 39.0 °F 82% 30.38 in 10.0 mi Calm Calm - N/A   Clear
8:56 PM 42.1 °F - 37.9 °F 85% 30.43 in 10.0 mi Calm Calm - N/A   Clear
9:56 PM 42.1 °F 40.2 °F 39.0 °F 89% 30.40 in 10.0 mi SE 3.5 mph - N/A   Clear
10:56 PM 43.0 °F 40.3 °F 41.0 °F 93% 30.40 in 10.0 mi SSE 4.6 mph - N/A   Clear
11:56 PM 43.0 °F 40.3 °F 41.0 °F 93% 30.40 in 10.0 mi SSE 4.6 mph - N/A   Clear